📊 Raw Sensor Data

Showing records 48026 to 48050 of 85,095 total

ID Distance (ft) Battery V Battery A Int Temp (°F) Int Humid (%) Ext Temp (°F) Solar V RSSI SNR Time Stamp
37082 -- 3.75 -5 61 46 62 0.00 -77 8 04/06/2025 08:00 PM
37081 -- 3.73 -5 63 47 63 0.80 -77 8 04/06/2025 07:45 PM
37080 -- 3.84 -10 64 48 64 4.20 -77 8 04/06/2025 07:30 PM
37079 -- 3.89 0 67 49 65 4.50 -76 8 04/06/2025 07:15 PM
37078 -- 3.93 8 70 49 67 4.60 -78 7 04/06/2025 07:00 PM
37077 -- 3.87 21 74 49 69 4.60 -77 8 04/06/2025 06:45 PM
37076 -- 4.03 0 79 46 72 5.10 -77 8 04/06/2025 06:30 PM
37075 -- 3.86 0 82 45 74 5.10 -76 9 04/06/2025 06:15 PM
37074 -- 3.87 0 85 43 79 5.10 -77 9 04/06/2025 06:00 PM
37073 -- 3.86 0 85 43 78 5.10 -77 9 04/06/2025 05:45 PM
37072 -- 3.86 0 86 42 80 5.10 -77 9 04/06/2025 05:30 PM
37071 -- 4.10 0 86 42 77 5.10 -77 9 04/06/2025 05:15 PM
37070 -- 4.05 0 86 42 74 5.10 -78 8 04/06/2025 05:00 PM
37069 -- 3.96 0 86 42 80 5.10 -78 8 04/06/2025 04:45 PM
37068 -- 3.86 0 87 42 76 5.10 -76 9 04/06/2025 04:30 PM
37067 -- 3.86 0 85 43 76 5.10 -78 7 04/06/2025 04:15 PM
37066 -- 3.86 0 89 41 76 5.10 -75 9 04/06/2025 04:00 PM
37065 -- 3.86 0 89 40 74 5.10 -75 9 04/06/2025 03:45 PM
37064 -- 3.86 0 90 40 81 5.10 -76 9 04/06/2025 03:30 PM
37063 -- 3.88 0 89 40 81 5.10 -77 9 04/06/2025 03:15 PM
37062 -- 3.86 0 89 39 80 5.10 -78 9 04/06/2025 03:00 PM
37061 -- 3.86 0 86 40 80 5.10 -77 9 04/06/2025 02:45 PM
37060 -- 3.86 0 86 40 81 5.10 -78 8 04/06/2025 02:31 PM
37059 -- 3.86 0 87 39 78 5.10 -76 9 04/06/2025 02:16 PM
37058 -- 3.86 0 88 38 79 5.10 -76 9 04/06/2025 02:00 PM